User: anonymous   Login
Location: Keewatin
(47.4004°N, 93.0827°W)
Time: 12:27:28
(UTC+00:00)
Language:

ZACube-1 - Orbit

View from above orbital plane
View from above orbital plane
View from above satellite
View from above satellite

Ground track
Ground track

The orbit data is extracted from the following two-line orbital elements,

1 39417U 13066B   20049.05480330  .00000172  00000-0  28076-4 0  9995
2 39417  97.5629  53.7951 0057769 313.7685  45.8756 14.81222806337216
Epoch (UTC): 18 February 2020 01:18:55
Eccentricity: 0.0057769
inclination: 97.5629°
perigee height: 585 km
apogee height: 666 km
right ascension of ascending node: 53.7951°
argument of perigee: 313.7685°
revolutions per day: 14.81222806
mean anomaly at epoch: 45.8756°
orbit number at epoch: 33721

The dashed part of the orbit path shows where the satellite is in the earth's shadow,  

DLR